Johnstown, PA

5:25 AM EST on February 21, 2017 (GMT -0500)
Johnstown-Cambria County

Weather History for KJST - October, 2012

Change the Weather History Date:

Monday, October 1, 2012

  Actual Average Record
Temperature  
Mean Temperature 50 °F 54 °F  
Max Temperature 63 °F 63 °F 94 °F (1953)
Min Temperature 37 °F 45 °F 28 °F (1947)
Degree Days  
Heating Degree Days 16 11  
Month to date heating degree days 11  
Since 1 July heating degree days 229  
Cooling Degree Days 0 0  
Month to date cooling degree days 0  
Year to date cooling degree days 382  
Moisture  
Dew Point 42 °F    
Average Humidity 86    
Maximum Humidity 100    
Minimum Humidity 46    
Precipitation  
Precipitation 0.00 in 0.12 in 1.94 in (1913)
Month to date precipitation 0.12  
Year to date precipitation 24.41  
Sea Level Pressure  
Sea Level Pressure 29.95 in    
Wind  
Wind Speed 4 mph (South)    
Max Wind Speed 12 mph    
Max Gust Speed -    
Visibility 6 miles    
Events Fog    
T = Trace of Precipitation, MM = Missing Value Source: NWS Daily Summary

Daily Weather History Graph

Daily Weather History Graph

Search for Another Location

Airport or City:

Trip Planner

Search our weather history database for the weather conditions in past years. The results will help you decide how hot, cold, wet, or windy it might be!

Date:

Astronomy

Oct. 01, 2012 Rise Set
Actual Time 7:12 AM EDT 6:56 PM EDT
Civil Twilight 6:45 AM EDT 7:23 PM EDT
Nautical Twilight 6:13 AM EDT 7:55 PM EDT
Astronomical Twilight 5:41 AM EDT 8:27 PM EDT
Moon 7:32 PM EDT (10/1) 8:40 AM EDT (10/1)
Length of Visible Light 12h 38m
Length of Day
11h 44m
Full, 98% of the Moon is Illuminated
Oct 1
Full
Oct 8
Last Quarter
Oct 15
New
Oct 21
First Quarter
Oct 29
Full

Hourly Weather History & Observations

Time (EDT) Temp. Windchill Dew Point Humidity Pressure Visibility Wind Dir Wind Speed Gust Speed Precip Events Conditions
1:54 AM 42.1 °F 38.4 °F 41.0 °F 96% 29.94 in 10.0 mi WSW 5.8 mph - N/A   Clear
2:54 AM 41.0 °F 38.0 °F 39.9 °F 96% 29.94 in 7.0 mi SW 4.6 mph - N/A   Clear
3:54 AM 41.0 °F 38.0 °F 39.0 °F 93% 29.94 in 9.0 mi WSW 4.6 mph - N/A   Clear
4:54 AM 42.1 °F 38.4 °F 39.9 °F 92% 29.95 in 7.0 mi SSW 5.8 mph - N/A   Clear
6:41 AM 39.2 °F - 37.4 °F 93% 29.93 in 1.8 mi Calm Calm - N/A   Clear
6:50 AM 39.2 °F - 39.2 °F 100% 29.93 in 3.0 mi Calm Calm - N/A   Clear
6:51 AM 39.9 °F - 39.0 °F 97% 29.96 in 3.0 mi Calm Calm - N/A   Clear
7:11 AM 39.2 °F 37.0 °F 37.4 °F 93% 29.93 in 1.8 mi NE 3.5 mph - N/A   Clear
7:37 AM 39.2 °F 34.2 °F 37.4 °F 93% 29.94 in 0.5 mi SW 6.9 mph - N/A Fog Fog
7:44 AM 37.4 °F 32.1 °F 37.4 °F 100% 29.94 in 0.2 mi SW 6.9 mph - N/A Fog Fog
8:35 AM 42.8 °F 39.3 °F 41.0 °F 93% 29.96 in 1.0 mi South 5.8 mph - N/A   Mist
8:40 AM 42.8 °F 40.1 °F 41.0 °F 93% 29.96 in 2.5 mi SSW 4.6 mph - N/A   Scattered Clouds
8:48 AM 42.8 °F 41.1 °F 41.0 °F 93% 29.96 in 1.0 mi WSW 3.5 mph - N/A   Mist
8:52 AM 41.0 °F - 39.2 °F 93% 29.96 in 0.2 mi Calm Calm - N/A Fog Fog
8:54 AM 41.0 °F 39.0 °F 39.9 °F 96% 30.00 in 0.2 mi WSW 3.5 mph - N/A Fog Fog
9:42 AM 44.6 °F - 44.6 °F 100% 29.96 in 1.0 mi Calm Calm - N/A   Mist
9:49 AM 44.6 °F - 44.6 °F 100% 29.96 in 3.0 mi Calm Calm - N/A   Mostly Cloudy
9:54 AM 45.0 °F - 45.0 °F 100% 30.00 in 3.0 mi Calm Calm - N/A   Mostly Cloudy
10:10 AM 46.4 °F 44.3 °F 44.6 °F 93% 29.97 in 7.0 mi Variable 4.6 mph - N/A   Scattered Clouds
11:54 AM 55.9 °F - 45.0 °F 67% 29.97 in 10.0 mi North 4.6 mph - N/A   Clear
12:54 PM 59.0 °F - 37.9 °F 46% 29.96 in 10.0 mi NNE 3.5 mph - N/A   Clear
2:54 PM 62.1 °F - 42.1 °F 48% 29.92 in 10.0 mi Calm Calm - N/A   Clear
4:54 PM 60.1 °F - 42.1 °F 51% 29.92 in 10.0 mi SE 9.2 mph - N/A   Clear
5:54 PM 57.9 °F - 45.0 °F 62% 29.93 in 10.0 mi SSE 8.1 mph - N/A   Overcast
6:54 PM 55.9 °F - 45.0 °F 67% 29.95 in 10.0 mi SSE 9.2 mph - N/A   Overcast
7:54 PM 55.0 °F - 46.9 °F 74% 29.94 in 10.0 mi SE 8.1 mph - N/A   Overcast
8:54 PM 54.0 °F - 48.9 °F 83% 29.94 in 10.0 mi SSE 11.5 mph - N/A   Overcast
9:54 PM 54.0 °F - 50.0 °F 86% 29.91 in 10.0 mi SSE 8.1 mph - N/A   Overcast
10:54 PM 54.0 °F - 50.0 °F 86% 29.91 in 10.0 mi SSE 9.2 mph - 0.00 in   Overcast